Terminal Aerodrome Forecast
Issued by NWS Greer, SC

Home | Current Version | Previous Version | Text Only | Print | Product List | Glossary On
Versions: 1 2 3 4 5 6 7 8 9 10 11 12 13 14 15 16 17 18 19 20 21
000
FTUS42 KGSP 270530
TAFGSP
TAF
KGSP 270530Z 2706/2806 20007KT P6SM BKN060
     FM271600 20010G18KT P6SM OVC015 PROB30 2718/2722 4SM -TSRA
      OVC007CB
     FM272200 23007KT P6SM BKN045
     FM280100 23005KT P6SM SCT060=

USA.gov is the U.S. government's official web portal to all federal, state and local government web resources and services.